owner,sensor,date,latitude,longitude,vertical_datum,wind_speed,wind_to_direction,wind_speed_of_gust,qcFlag 
COMPS,ioos:station:USF.COMPS:FHP:1,2014-08-01T00:00:00Z,28.1530,-82.8010,10.0,3.71,329.28,4.9,'1111122,1111122,1111122' 
COMPS,ioos:station:USF.COMPS:FHP:1,2014-08-01T00:06:00Z,28.1530,-82.8010,10.0,3.88,345.32,4.9,'1111122,1111122,1111122' 
COMPS,ioos:station:USF.COMPS:FHP:1,2014-08-01T00:12:00Z,28.1530,-82.8010,10.0,3.36,342.13,4.31,'1111122,1111122,1111122' 
COMPS,ioos:station:USF.COMPS:FHP:1,2014-08-01T00:18:00Z,28.1530,-82.8010,10.0,3.47,328.83,4.6,'1111122,1111122,1111122' 
COMPS,ioos:station:USF.COMPS:FHP:1,2014-08-01T00:24:00Z,28.1530,-82.8010,10.0,3.56,326.53,4.41,'1111122,1111122,1111122' 
COMPS,ioos:station:USF.COMPS:FHP:1,2014-08-01T00:30:00Z,28.1530,-82.8010,10.0,3.62,335.57,4.99,'1111122,1111122,1111122' 
COMPS,ioos:station:USF.COMPS:FHP:1,2014-08-01T00:36:00Z,28.1530,-82.8010,10.0,3.57,339.36,4.9,'1111122,1111122,1111122' 
COMPS,ioos:station:USF.COMPS:FHP:1,2014-08-01T00:42:00Z,28.1530,-82.8010,10.0,3.2,331.31,4.21,'1111122,1111122,1111122' 
COMPS,ioos:station:USF.COMPS:FHP:1,2014-08-01T00:48:00Z,28.1530,-82.8010,10.0,3.16,322.59,3.82,'1111122,1111122,1111122' 
COMPS,ioos:station:USF.COMPS:FHP:1,2014-08-01T00:54:00Z,28.1530,-82.8010,10.0,3.41,327.97,4.21,'1111122,1111122,1111122' 
COMPS,ioos:station:USF.COMPS:FHP:1,2014-08-01T01:00:00Z,28.1530,-82.8010,10.0,2.56,322.51,3.23,'1111122,1111122,1111122' 
COMPS,ioos:station:USF.COMPS:FHP:1,2014-08-01T01:06:00Z,28.1530,-82.8010,10.0,3.43,341.29,4.5,'1111122,1111122,1111122' 
COMPS,ioos:station:USF.COMPS:FHP:1,2014-08-01T01:12:00Z,28.1530,-82.8010,10.0,3.42,334.85,4.5,'1111122,1111122,1111122' 
COMPS,ioos:station:USF.COMPS:FHP:1,2014-08-01T01:18:00Z,28.1530,-82.8010,10.0,3.01,320.93,4.01,'1111122,1111122,1111122' 
COMPS,ioos:station:USF.COMPS:FHP:1,2014-08-01T01:24:00Z,28.1530,-82.8010,10.0,2.9,340.43,3.72,'1111122,1111122,1111122' 
COMPS,ioos:station:USF.COMPS:FHP:1,2014-08-01T01:30:00Z,28.1530,-82.8010,10.0,3.05,334.18,3.82,'1111122,1111122,1111122' 
COMPS,ioos:station:USF.COMPS:FHP:1,2014-08-01T01:36:00Z,28.1530,-82.8010,10.0,3.49,339.16,4.8,'1111122,1111122,1111122' 
COMPS,ioos:station:USF.COMPS:FHP:1,2014-08-01T01:42:00Z,28.1530,-82.8010,10.0,3.69,335.95,4.6,'1111122,1111122,1111122' 
COMPS,ioos:station:USF.COMPS:FHP:1,2014-08-01T01:48:00Z,28.1530,-82.8010,10.0,3.74,344.05,4.99,'1111122,1111122,1111122' 
COMPS,ioos:station:USF.COMPS:FHP:1,2014-08-01T01:54:00Z,28.1530,-82.8010,10.0,3.6,334.16,4.6,'1111122,1111122,1111122' 
COMPS,ioos:station:USF.COMPS:FHP:1,2014-08-01T02:00:00Z,28.1530,-82.8010,10.0,2.73,341.44,3.52,'1111122,1111122,1111122' 
COMPS,ioos:station:USF.COMPS:FHP:1,2014-08-01T02:06:00Z,28.1530,-82.8010,10.0,3.19,348.22,4.31,'1111122,1111122,1111122' 
COMPS,ioos:station:USF.COMPS:FHP:1,2014-08-01T02:12:00Z,28.1530,-82.8010,10.0,2.75,349.19,3.72,'1111122,1111122,1111122' 
COMPS,ioos:station:USF.COMPS:FHP:1,2014-08-01T02:18:00Z,28.1530,-82.8010,10.0,2.73,337.69,3.72,'1111122,1111122,1111122' 
COMPS,ioos:station:USF.COMPS:FHP:1,2014-08-01T02:24:00Z,28.1530,-82.8010,10.0,3.2,345.84,4.8,'1111122,1111122,1111122' 
COMPS,ioos:station:USF.COMPS:FHP:1,2014-08-01T02:30:00Z,28.1530,-82.8010,10.0,3.04,347.71,4.31,'1111122,1111122,1111122' 
COMPS,ioos:station:USF.COMPS:FHP:1,2014-08-01T02:36:00Z,28.1530,-82.8010,10.0,3.12,340.14,3.92,'1111122,1111122,1111122' 
COMPS,ioos:station:USF.COMPS:FHP:1,2014-08-01T02:42:00Z,28.1530,-82.8010,10.0,2.59,2.73,3.43,'1111122,1111122,1111122' 
COMPS,ioos:station:USF.COMPS:FHP:1,2014-08-01T02:48:00Z,28.1530,-82.8010,10.0,2.98,354.69,4.11,'1111122,1111122,1111122' 
COMPS,ioos:station:USF.COMPS:FHP:1,2014-08-01T02:54:00Z,28.1530,-82.8010,10.0,2.68,350.1,3.52,'1111122,1111122,1111122' 
COMPS,ioos:station:USF.COMPS:FHP:1,2014-08-01T03:00:00Z,28.1530,-82.8010,10.0,2.4,349.28,3.33,'1111122,1111122,1111122' 
COMPS,ioos:station:USF.COMPS:FHP:1,2014-08-01T03:06:00Z,28.1530,-82.8010,10.0,2.81,7.56,3.62,'1111122,1111122,1111122' 
COMPS,ioos:station:USF.COMPS:FHP:1,2014-08-01T03:12:00Z,28.1530,-82.8010,10.0,2.26,3.97,3.33,'1111122,1111122,1111122' 
COMPS,ioos:station:USF.COMPS:FHP:1,2014-08-01T03:18:00Z,28.1530,-82.8010,10.0,2.23,350.69,3.33,'1111122,1111122,1111122' 
COMPS,ioos:station:USF.COMPS:FHP:1,2014-08-01T03:24:00Z,28.1530,-82.8010,10.0,2.56,8.25,3.33,'1111122,1111122,1111122' 
COMPS,ioos:station:USF.COMPS:FHP:1,2014-08-01T03:30:00Z,28.1530,-82.8010,10.0,1.89,11.73,2.64,'1111122,1111122,1111122' 
COMPS,ioos:station:USF.COMPS:FHP:1,2014-08-01T03:36:00Z,28.1530,-82.8010,10.0,0.96,56.64,1.76,'1111122,1111122,1111122' 
COMPS,ioos:station:USF.COMPS:FHP:1,2014-08-01T03:42:00Z,28.1530,-82.8010,10.0,1.75,5.69,2.64,'1111122,1111122,1111122' 
COMPS,ioos:station:USF.COMPS:FHP:1,2014-08-01T03:48:00Z,28.1530,-82.8010,10.0,2.25,6.63,2.94,'1111122,1111122,1111122' 
COMPS,ioos:station:USF.COMPS:FHP:1,2014-08-01T03:54:00Z,28.1530,-82.8010,10.0,2.67,354.81,3.43,'1111122,1111122,1111122' 
COMPS,ioos:station:USF.COMPS:FHP:1,2014-08-01T04:00:00Z,28.1530,-82.8010,10.0,2.61,3.56,3.13,'1111122,1111122,1111122' 
COMPS,ioos:station:USF.COMPS:FHP:1,2014-08-01T04:06:00Z,28.1530,-82.8010,10.0,1.94,3.86,2.45,'1111122,1111122,1111122' 
COMPS,ioos:station:USF.COMPS:FHP:1,2014-08-01T04:12:00Z,28.1530,-82.8010,10.0,1.88,11.04,2.64,'1111122,1111122,1111122' 
COMPS,ioos:station:USF.COMPS:FHP:1,2014-08-01T04:18:00Z,28.1530,-82.8010,10.0,1.31,38.02,2.35,'1111122,1111122,1111122' 
COMPS,ioos:station:USF.COMPS:FHP:1,2014-08-01T04:24:00Z,28.1530,-82.8010,10.0,1.29,46.36,2.84,'1111122,1111122,1111122' 
COMPS,ioos:station:USF.COMPS:FHP:1,2014-08-01T04:30:00Z,28.1530,-82.8010,10.0,2.01,10.76,2.94,'1111122,1111122,1111122' 
COMPS,ioos:station:USF.COMPS:FHP:1,2014-08-01T04:36:00Z,28.1530,-82.8010,10.0,1.88,21.33,2.64,'1111122,1111122,1111122' 
COMPS,ioos:station:USF.COMPS:FHP:1,2014-08-01T04:42:00Z,28.1530,-82.8010,10.0,1.34,54.0,2.25,'1111122,1111122,1111122' 
COMPS,ioos:station:USF.COMPS:FHP:1,2014-08-01T04:48:00Z,28.1530,-82.8010,10.0,2.47,2.95,3.43,'1111122,1111122,1111122' 
COMPS,ioos:station:USF.COMPS:FHP:1,2014-08-01T04:54:00Z,28.1530,-82.8010,10.0,1.5,52.5,2.45,'1111122,1111122,1111122' 
COMPS,ioos:station:USF.COMPS:FHP:1,2014-08-01T05:00:00Z,28.1530,-82.8010,10.0,1.2,50.69,1.86,'1111122,1111122,1111122' 
COMPS,ioos:station:USF.COMPS:FHP:1,2014-08-01T05:06:00Z,28.1530,-82.8010,10.0,2.08,11.72,3.43,'1111122,1111122,1111122' 
COMPS,ioos:station:USF.COMPS:FHP:1,2014-08-01T05:12:00Z,28.1530,-82.8010,10.0,2.37,4.85,2.94,'1111122,1111122,1111122' 
COMPS,ioos:station:USF.COMPS:FHP:1,2014-08-01T05:18:00Z,28.1530,-82.8010,10.0,2.08,2.82,2.94,'1111122,1111122,1111122' 
COMPS,ioos:station:USF.COMPS:FHP:1,2014-08-01T05:24:00Z,28.1530,-82.8010,10.0,2.61,355.93,3.43,'1111122,1111122,1111122' 
COMPS,ioos:station:USF.COMPS:FHP:1,2014-08-01T05:30:00Z,28.1530,-82.8010,10.0,1.11,40.73,1.76,'1111122,1111122,1111122' 
COMPS,ioos:station:USF.COMPS:FHP:1,2014-08-01T05:36:00Z,28.1530,-82.8010,10.0,1.08,42.48,1.56,'1111122,1111122,1111122' 
COMPS,ioos:station:USF.COMPS:FHP:1,2014-08-01T05:42:00Z,28.1530,-82.8010,10.0,1.37,11.66,2.25,'1111122,1111122,1111122' 
COMPS,ioos:station:USF.COMPS:FHP:1,2014-08-01T05:48:00Z,28.1530,-82.8010,10.0,1.21,41.6,2.15,'1111122,1111122,1111122' 
COMPS,ioos:station:USF.COMPS:FHP:1,2014-08-01T05:54:00Z,28.1530,-82.8010,10.0,0.71,52.59,1.27,'1111122,1111122,1111122' 
COMPS,ioos:station:USF.COMPS:FHP:1,2014-08-01T06:00:00Z,28.1530,-82.8010,10.0,0.48,35.32,1.96,'1111122,1111122,1111122' 
COMPS,ioos:station:USF.COMPS:FHP:1,2014-08-01T06:06:00Z,28.1530,-82.8010,10.0,0.95,70.13,1.47,'1111122,1111122,1111122' 
COMPS,ioos:station:USF.COMPS:FHP:1,2014-08-01T06:12:00Z,28.1530,-82.8010,10.0,0.91,67.52,1.27,'1111122,1111122,1111122' 
COMPS,ioos:station:USF.COMPS:FHP:1,2014-08-01T06:18:00Z,28.1530,-82.8010,10.0,0.64,50.52,1.07,'1111122,1111122,1111122' 
COMPS,ioos:station:USF.COMPS:FHP:1,2014-08-01T06:24:00Z,28.1530,-82.8010,10.0,0.53,69.26,1.07,'1111122,1111122,1111122' 
COMPS,ioos:station:USF.COMPS:FHP:1,2014-08-01T06:30:00Z,28.1530,-82.8010,10.0,0.67,63.49,1.07,'1111122,1111122,1111122' 
COMPS,ioos:station:USF.COMPS:FHP:1,2014-08-01T06:36:00Z,28.1530,-82.8010,10.0,1.07,95.53,1.76,'1111122,1111122,1111122' 
COMPS,ioos:station:USF.COMPS:FHP:1,2014-08-01T06:42:00Z,28.1530,-82.8010,10.0,1.17,111.98,2.05,'1111122,1111122,1111122' 
COMPS,ioos:station:USF.COMPS:FHP:1,2014-08-01T06:48:00Z,28.1530,-82.8010,10.0,1.07,105.58,1.47,'1111122,1111122,1111122' 
COMPS,ioos:station:USF.COMPS:FHP:1,2014-08-01T06:54:00Z,28.1530,-82.8010,10.0,1.15,106.25,1.47,'1111122,1111122,1111122' 
COMPS,ioos:station:USF.COMPS:FHP:1,2014-08-01T07:00:00Z,28.1530,-82.8010,10.0,1.21,122.32,1.66,'1111122,1111122,1111122' 
COMPS,ioos:station:USF.COMPS:FHP:1,2014-08-01T07:06:00Z,28.1530,-82.8010,10.0,1.62,121.46,2.15,'1111122,1111122,1111122' 
COMPS,ioos:station:USF.COMPS:FHP:1,2014-08-01T07:12:00Z,28.1530,-82.8010,10.0,1.6,121.61,1.96,'1111122,1111122,1111122' 
COMPS,ioos:station:USF.COMPS:FHP:1,2014-08-01T07:18:00Z,28.1530,-82.8010,10.0,1.23,122.25,1.47,'1111122,1111122,1111122' 
COMPS,ioos:station:USF.COMPS:FHP:1,2014-08-01T07:24:00Z,28.1530,-82.8010,10.0,1.02,116.54,1.37,'1111122,1111122,1111122' 
COMPS,ioos:station:USF.COMPS:FHP:1,2014-08-01T07:30:00Z,28.1530,-82.8010,10.0,0.97,122.9,1.17,'1111122,1111122,1111122' 
COMPS,ioos:station:USF.COMPS:FHP:1,2014-08-01T07:36:00Z,28.1530,-82.8010,10.0,1.35,121.91,1.56,'1111122,1111122,1111122' 
COMPS,ioos:station:USF.COMPS:FHP:1,2014-08-01T07:42:00Z,28.1530,-82.8010,10.0,1.64,116.68,1.96,'1111122,1111122,1111122' 
COMPS,ioos:station:USF.COMPS:FHP:1,2014-08-01T07:48:00Z,28.1530,-82.8010,10.0,1.79,121.52,2.25,'1111122,1111122,1111122' 
COMPS,ioos:station:USF.COMPS:FHP:1,2014-08-01T07:54:00Z,28.1530,-82.8010,10.0,2.15,124.53,2.84,'1111122,1111122,1111122' 
COMPS,ioos:station:USF.COMPS:FHP:1,2014-08-01T08:00:00Z,28.1530,-82.8010,10.0,2.14,125.43,2.45,'1111122,1111122,1111122' 
COMPS,ioos:station:USF.COMPS:FHP:1,2014-08-01T08:06:00Z,28.1530,-82.8010,10.0,1.94,132.55,2.35,'1111122,1111122,1111122' 
COMPS,ioos:station:USF.COMPS:FHP:1,2014-08-01T08:12:00Z,28.1530,-82.8010,10.0,1.94,129.74,2.35,'1111122,1111122,1111122' 
COMPS,ioos:station:USF.COMPS:FHP:1,2014-08-01T08:18:00Z,28.1530,-82.8010,10.0,2.16,131.23,2.45,'1111122,1111122,1111122' 
COMPS,ioos:station:USF.COMPS:FHP:1,2014-08-01T08:24:00Z,28.1530,-82.8010,10.0,2.03,137.18,2.35,'1111122,1111122,1111122' 
COMPS,ioos:station:USF.COMPS:FHP:1,2014-08-01T08:30:00Z,28.1530,-82.8010,10.0,1.79,136.28,2.15,'1111122,1111122,1111122' 
COMPS,ioos:station:USF.COMPS:FHP:1,2014-08-01T08:36:00Z,28.1530,-82.8010,10.0,1.25,138.32,1.47,'1111122,1111122,1111122' 
COMPS,ioos:station:USF.COMPS:FHP:1,2014-08-01T08:42:00Z,28.1530,-82.8010,10.0,1.22,143.69,1.47,'1111122,1111122,1111122' 
COMPS,ioos:station:USF.COMPS:FHP:1,2014-08-01T08:48:00Z,28.1530,-82.8010,10.0,1.12,140.06,1.56,'1111122,1111122,1111122' 
COMPS,ioos:station:USF.COMPS:FHP:1,2014-08-01T08:54:00Z,28.1530,-82.8010,10.0,1.56,142.52,1.86,'1111122,1111122,1111122' 
COMPS,ioos:station:USF.COMPS:FHP:1,2014-08-01T09:00:00Z,28.1530,-82.8010,10.0,1.56,144.28,1.96,'1111122,1111122,1111122' 
COMPS,ioos:station:USF.COMPS:FHP:1,2014-08-01T09:06:00Z,28.1530,-82.8010,10.0,1.32,141.76,1.66,'1111122,1111122,1111122' 
COMPS,ioos:station:USF.COMPS:FHP:1,2014-08-01T09:12:00Z,28.1530,-82.8010,10.0,1.37,134.04,1.66,'1111122,1111122,1111122' 
COMPS,ioos:station:USF.COMPS:FHP:1,2014-08-01T09:18:00Z,28.1530,-82.8010,10.0,1.24,134.77,1.47,'1111122,1111122,1111122' 
COMPS,ioos:station:USF.COMPS:FHP:1,2014-08-01T09:24:00Z,28.1530,-82.8010,10.0,1.22,140.41,1.47,'1111122,1111122,1111122' 
COMPS,ioos:station:USF.COMPS:FHP:1,2014-08-01T09:30:00Z,28.1530,-82.8010,10.0,1.45,123.04,2.15,'1111122,1111122,1111122' 
COMPS,ioos:station:USF.COMPS:FHP:1,2014-08-01T09:36:00Z,28.1530,-82.8010,10.0,1.52,105.39,2.15,'1111122,1111122,1111122' 
COMPS,ioos:station:USF.COMPS:FHP:1,2014-08-01T09:42:00Z,28.1530,-82.8010,10.0,1.32,110.83,1.56,'1111122,1111122,1111122' 
COMPS,ioos:station:USF.COMPS:FHP:1,2014-08-01T09:48:00Z,28.1530,-82.8010,10.0,1.38,109.93,1.76,'1111122,1111122,1111122' 
COMPS,ioos:station:USF.COMPS:FHP:1,2014-08-01T09:54:00Z,28.1530,-82.8010,10.0,1.11,118.58,1.47,'1111122,1111122,1111122' 
COMPS,ioos:station:USF.COMPS:FHP:1,2014-08-01T10:00:00Z,28.1530,-82.8010,10.0,1.44,133.94,1.76,'1111122,1111122,1111122' 
COMPS,ioos:station:USF.COMPS:FHP:1,2014-08-01T10:06:00Z,28.1530,-82.8010,10.0,1.23,139.53,1.47,'1111122,1111122,1111122' 
COMPS,ioos:station:USF.COMPS:FHP:1,2014-08-01T10:12:00Z,28.1530,-82.8010,10.0,1.12,139.65,1.27,'1111122,1111122,1111122' 
COMPS,ioos:station:USF.COMPS:FHP:1,2014-08-01T10:18:00Z,28.1530,-82.8010,10.0,0.95,135.5,1.27,'1111122,1111122,1111122' 
COMPS,ioos:station:USF.COMPS:FHP:1,2014-08-01T10:24:00Z,28.1530,-82.8010,10.0,1.21,119.93,1.47,'1111122,1111122,1111122' 
COMPS,ioos:station:USF.COMPS:FHP:1,2014-08-01T10:30:00Z,28.1530,-82.8010,10.0,1.5,120.64,2.15,'1111122,1111122,1111122' 
COMPS,ioos:station:USF.COMPS:FHP:1,2014-08-01T10:36:00Z,28.1530,-82.8010,10.0,1.96,126.81,2.35,'1111122,1111122,1111122' 
COMPS,ioos:station:USF.COMPS:FHP:1,2014-08-01T10:42:00Z,28.1530,-82.8010,10.0,1.52,129.73,2.15,'1111122,1111122,1111122' 
COMPS,ioos:station:USF.COMPS:FHP:1,2014-08-01T10:48:00Z,28.1530,-82.8010,10.0,1.05,126.75,1.76,'1111122,1111122,1111122' 
COMPS,ioos:station:USF.COMPS:FHP:1,2014-08-01T10:54:00Z,28.1530,-82.8010,10.0,0.9,125.5,1.27,'1111122,1111122,1111122' 
COMPS,ioos:station:USF.COMPS:FHP:1,2014-08-01T11:00:00Z,28.1530,-82.8010,10.0,1.27,132.02,1.66,'1111122,1111122,1111122' 
COMPS,ioos:station:USF.COMPS:FHP:1,2014-08-01T11:06:00Z,28.1530,-82.8010,10.0,1.35,116.22,1.66,'1111122,1111122,1111122' 
COMPS,ioos:station:USF.COMPS:FHP:1,2014-08-01T11:12:00Z,28.1530,-82.8010,10.0,1.49,116.75,1.86,'1111122,1111122,1111122' 
COMPS,ioos:station:USF.COMPS:FHP:1,2014-08-01T11:18:00Z,28.1530,-82.8010,10.0,1.57,111.91,1.96,'1111122,1111122,1111122' 
COMPS,ioos:station:USF.COMPS:FHP:1,2014-08-01T11:24:00Z,28.1530,-82.8010,10.0,1.52,113.5,1.96,'1111122,1111122,1111122' 
COMPS,ioos:station:USF.COMPS:FHP:1,2014-08-01T11:30:00Z,28.1530,-82.8010,10.0,2.03,119.54,2.45,'1111122,1111122,1111122' 
COMPS,ioos:station:USF.COMPS:FHP:1,2014-08-01T11:36:00Z,28.1530,-82.8010,10.0,1.88,115.8,2.25,'1111122,1111122,1111122' 
COMPS,ioos:station:USF.COMPS:FHP:1,2014-08-01T11:42:00Z,28.1530,-82.8010,10.0,2.08,109.43,2.54,'1111122,1111122,1111122' 
COMPS,ioos:station:USF.COMPS:FHP:1,2014-08-01T11:48:00Z,28.1530,-82.8010,10.0,2.39,108.86,2.84,'1111122,1111122,1111122' 
COMPS,ioos:station:USF.COMPS:FHP:1,2014-08-01T11:54:00Z,28.1530,-82.8010,10.0,2.45,111.67,2.94,'1111122,1111122,1111122' 
COMPS,ioos:station:USF.COMPS:FHP:1,2014-08-01T12:00:00Z,28.1530,-82.8010,10.0,2.4,102.27,2.84,'1111122,1111122,1111122' 
COMPS,ioos:station:USF.COMPS:FHP:1,2014-08-01T12:06:00Z,28.1530,-82.8010,10.0,2.22,100.06,2.64,'1111122,1111122,1111122' 
COMPS,ioos:station:USF.COMPS:FHP:1,2014-08-01T12:12:00Z,28.1530,-82.8010,10.0,1.98,99.37,2.45,'1111122,1111122,1111122' 
COMPS,ioos:station:USF.COMPS:FHP:1,2014-08-01T12:18:00Z,28.1530,-82.8010,10.0,1.6,91.48,2.05,'1111122,1111122,1111122' 
COMPS,ioos:station:USF.COMPS:FHP:1,2014-08-01T12:24:00Z,28.1530,-82.8010,10.0,1.26,95.48,1.56,'1111122,1111122,1111122' 
COMPS,ioos:station:USF.COMPS:FHP:1,2014-08-01T12:30:00Z,28.1530,-82.8010,10.0,0.8,119.24,1.27,'1111122,1111122,1111122' 
COMPS,ioos:station:USF.COMPS:FHP:1,2014-08-01T12:36:00Z,28.1530,-82.8010,10.0,0.93,126.1,1.47,'1111122,1111122,1111122' 
COMPS,ioos:station:USF.COMPS:FHP:1,2014-08-01T12:42:00Z,28.1530,-82.8010,10.0,0.92,111.95,1.47,'1111122,1111122,1111122' 
COMPS,ioos:station:USF.COMPS:FHP:1,2014-08-01T12:48:00Z,28.1530,-82.8010,10.0,0.97,90.86,1.37,'1111122,1111122,1111122' 
COMPS,ioos:station:USF.COMPS:FHP:1,2014-08-01T12:54:00Z,28.1530,-82.8010,10.0,1.44,87.06,1.96,'1111122,1111122,1111122' 
COMPS,ioos:station:USF.COMPS:FHP:1,2014-08-01T13:00:00Z,28.1530,-82.8010,10.0,2.02,69.82,2.54,'1111122,1111122,1111122' 
COMPS,ioos:station:USF.COMPS:FHP:1,2014-08-01T13:06:00Z,28.1530,-82.8010,10.0,2.02,83.59,2.54,'1111122,1111122,1111122' 
COMPS,ioos:station:USF.COMPS:FHP:1,2014-08-01T13:12:00Z,28.1530,-82.8010,10.0,2.21,89.9,2.54,'1111122,1111122,1111122' 
COMPS,ioos:station:USF.COMPS:FHP:1,2014-08-01T13:18:00Z,28.1530,-82.8010,10.0,2.07,87.95,2.54,'1111122,1111122,1111122' 
COMPS,ioos:station:USF.COMPS:FHP:1,2014-08-01T13:24:00Z,28.1530,-82.8010,10.0,2.06,89.41,2.74,'1111122,1111122,1111122' 
COMPS,ioos:station:USF.COMPS:FHP:1,2014-08-01T13:30:00Z,28.1530,-82.8010,10.0,1.28,105.01,1.76,'1111122,1111122,1111122' 
COMPS,ioos:station:USF.COMPS:FHP:1,2014-08-01T13:36:00Z,28.1530,-82.8010,10.0,1.33,99.08,1.86,'1111122,1111122,1111122' 
COMPS,ioos:station:USF.COMPS:FHP:1,2014-08-01T13:42:00Z,28.1530,-82.8010,10.0,1.19,81.96,1.56,'1111122,1111122,1111122' 
COMPS,ioos:station:USF.COMPS:FHP:1,2014-08-01T13:48:00Z,28.1530,-82.8010,10.0,0.67,88.13,1.56,'1111122,1111122,1111122' 
COMPS,ioos:station:USF.COMPS:FHP:1,2014-08-01T13:54:00Z,28.1530,-82.8010,10.0,0.4,120.93,0.78,'1111122,1111122,1111122' 
COMPS,ioos:station:USF.COMPS:FHP:1,2014-08-01T14:00:00Z,28.1530,-82.8010,10.0,0.5,48.04,0.88,'1111122,1111122,1111122' 
COMPS,ioos:station:USF.COMPS:FHP:1,2014-08-01T14:06:00Z,28.1530,-82.8010,10.0,0.54,17.53,1.07,'1111122,1111122,1111122' 
COMPS,ioos:station:USF.COMPS:FHP:1,2014-08-01T14:12:00Z,28.1530,-82.8010,10.0,0.31,358.16,0.78,'1111122,1111122,1111122' 
COMPS,ioos:station:USF.COMPS:FHP:1,2014-08-01T14:18:00Z,28.1530,-82.8010,10.0,0.77,15.79,1.27,'1111122,1111122,1111122' 
COMPS,ioos:station:USF.COMPS:FHP:1,2014-08-01T14:24:00Z,28.1530,-82.8010,10.0,0.92,14.5,1.17,'1111122,1111122,1111122' 
COMPS,ioos:station:USF.COMPS:FHP:1,2014-08-01T14:30:00Z,28.1530,-82.8010,10.0,0.61,354.94,1.17,'1111122,1111122,1111122' 
COMPS,ioos:station:USF.COMPS:FHP:1,2014-08-01T14:36:00Z,28.1530,-82.8010,10.0,0.88,359.02,1.37,'1111122,1111122,1111122' 
COMPS,ioos:station:USF.COMPS:FHP:1,2014-08-01T14:42:00Z,28.1530,-82.8010,10.0,1.15,355.98,1.86,'1111122,1111122,1111122' 
COMPS,ioos:station:USF.COMPS:FHP:1,2014-08-01T14:48:00Z,28.1530,-82.8010,10.0,1.3,8.83,1.76,'1111122,1111122,1111122' 
COMPS,ioos:station:USF.COMPS:FHP:1,2014-08-01T14:54:00Z,28.1530,-82.8010,10.0,1.35,339.47,2.45,'1111122,1111122,1111122' 
COMPS,ioos:station:USF.COMPS:FHP:1,2014-08-01T15:00:00Z,28.1530,-82.8010,10.0,1.91,344.98,2.45,'1111122,1111122,1111122' 
COMPS,ioos:station:USF.COMPS:FHP:1,2014-08-01T15:06:00Z,28.1530,-82.8010,10.0,1.82,350.71,2.15,'1111122,1111122,1111122' 
COMPS,ioos:station:USF.COMPS:FHP:1,2014-08-01T15:12:00Z,28.1530,-82.8010,10.0,1.47,353.02,2.05,'1111122,1111122,1111122' 
COMPS,ioos:station:USF.COMPS:FHP:1,2014-08-01T15:18:00Z,28.1530,-82.8010,10.0,1.71,343.2,2.54,'1111122,1111122,1111122' 
COMPS,ioos:station:USF.COMPS:FHP:1,2014-08-01T15:24:00Z,28.1530,-82.8010,10.0,1.31,345.31,2.15,'1111122,1111122,1111122' 
COMPS,ioos:station:USF.COMPS:FHP:1,2014-08-01T15:30:00Z,28.1530,-82.8010,10.0,1.69,338.87,2.54,'1111122,1111122,1111122' 
COMPS,ioos:station:USF.COMPS:FHP:1,2014-08-01T15:36:00Z,28.1530,-82.8010,10.0,2.28,346.13,2.94,'1111122,1111122,1111122' 
COMPS,ioos:station:USF.COMPS:FHP:1,2014-08-01T15:42:00Z,28.1530,-82.8010,10.0,2.06,341.78,2.94,'1111122,1111122,1111122' 
COMPS,ioos:station:USF.COMPS:FHP:1,2014-08-01T15:48:00Z,28.1530,-82.8010,10.0,2.56,341.61,3.43,'1111122,1111122,1111122' 
COMPS,ioos:station:USF.COMPS:FHP:1,2014-08-01T15:54:00Z,28.1530,-82.8010,10.0,2.11,348.08,2.94,'1111122,1111122,1111122' 
COMPS,ioos:station:USF.COMPS:FHP:1,2014-08-01T16:00:00Z,28.1530,-82.8010,10.0,3.19,353.43,4.41,'1111122,1111122,1111122' 
COMPS,ioos:station:USF.COMPS:FHP:1,2014-08-01T16:06:00Z,28.1530,-82.8010,10.0,3.27,351.74,4.11,'1111122,1111122,1111122' 
COMPS,ioos:station:USF.COMPS:FHP:1,2014-08-01T16:12:00Z,28.1530,-82.8010,10.0,2.62,340.06,3.82,'1111122,1111122,1111122' 
COMPS,ioos:station:USF.COMPS:FHP:1,2014-08-01T16:18:00Z,28.1530,-82.8010,10.0,3.16,343.12,4.9,'1111122,1111122,1111122' 
COMPS,ioos:station:USF.COMPS:FHP:1,2014-08-01T16:24:00Z,28.1530,-82.8010,10.0,3.72,341.47,4.8,'1111122,1111122,1111122' 
COMPS,ioos:station:USF.COMPS:FHP:1,2014-08-01T16:30:00Z,28.1530,-82.8010,10.0,3.75,352.2,4.9,'1111122,1111122,1111122' 
COMPS,ioos:station:USF.COMPS:FHP:1,2014-08-01T16:36:00Z,28.1530,-82.8010,10.0,3.65,359.26,4.7,'1111122,1111122,1111122' 
COMPS,ioos:station:USF.COMPS:FHP:1,2014-08-01T16:42:00Z,28.1530,-82.8010,10.0,3.54,355.23,4.11,'1111122,1111122,1111122' 
COMPS,ioos:station:USF.COMPS:FHP:1,2014-08-01T16:48:00Z,28.1530,-82.8010,10.0,3.59,351.87,4.5,'1111122,1111122,1111122' 
COMPS,ioos:station:USF.COMPS:FHP:1,2014-08-01T16:54:00Z,28.1530,-82.8010,10.0,4.05,351.47,4.99,'1111122,1111122,1111122' 
COMPS,ioos:station:USF.COMPS:FHP:1,2014-08-01T17:00:00Z,28.1530,-82.8010,10.0,4.15,346.06,4.8,'1111122,1111122,1111122' 
COMPS,ioos:station:USF.COMPS:FHP:1,2014-08-01T17:06:00Z,28.1530,-82.8010,10.0,3.65,346.45,4.9,'1111122,1111122,1111122' 
COMPS,ioos:station:USF.COMPS:FHP:1,2014-08-01T17:12:00Z,28.1530,-82.8010,10.0,4.56,344.35,5.48,'1111122,1111122,1111122' 
COMPS,ioos:station:USF.COMPS:FHP:1,2014-08-01T17:18:00Z,28.1530,-82.8010,10.0,4.28,343.95,5.39,'1111122,1111122,1111122' 
COMPS,ioos:station:USF.COMPS:FHP:1,2014-08-01T17:24:00Z,28.1530,-82.8010,10.0,4.18,348.39,5.39,'1111122,1111122,1111122' 
COMPS,ioos:station:USF.COMPS:FHP:1,2014-08-01T17:30:00Z,28.1530,-82.8010,10.0,4.33,353.64,4.99,'1111122,1111122,1111122' 
COMPS,ioos:station:USF.COMPS:FHP:1,2014-08-01T17:36:00Z,28.1530,-82.8010,10.0,4.54,357.27,5.48,'1111122,1111122,1111122' 
COMPS,ioos:station:USF.COMPS:FHP:1,2014-08-01T17:42:00Z,28.1530,-82.8010,10.0,4.26,346.94,5.09,'1111122,1111122,1111122' 
COMPS,ioos:station:USF.COMPS:FHP:1,2014-08-01T17:48:00Z,28.1530,-82.8010,10.0,4.37,344.47,5.19,'1111122,1111122,1111122' 
COMPS,ioos:station:USF.COMPS:FHP:1,2014-08-01T17:54:00Z,28.1530,-82.8010,10.0,4.25,339.35,5.78,'1111122,1111122,1111122' 
COMPS,ioos:station:USF.COMPS:FHP:1,2014-08-01T18:00:00Z,28.1530,-82.8010,10.0,3.96,356.29,5.48,'1111122,1111122,1111122' 
COMPS,ioos:station:USF.COMPS:FHP:1,2014-08-01T18:06:00Z,28.1530,-82.8010,10.0,3.66,347.98,4.6,'1111122,1111122,1111122' 
COMPS,ioos:station:USF.COMPS:FHP:1,2014-08-01T18:12:00Z,28.1530,-82.8010,10.0,3.94,356.74,5.09,'1111122,1111122,1111122' 
COMPS,ioos:station:USF.COMPS:FHP:1,2014-08-01T18:18:00Z,28.1530,-82.8010,10.0,3.81,358.03,4.9,'1111122,1111122,1111122' 
COMPS,ioos:station:USF.COMPS:FHP:1,2014-08-01T18:24:00Z,28.1530,-82.8010,10.0,4.2,357.06,5.58,'1111122,1111122,1111122' 
COMPS,ioos:station:USF.COMPS:FHP:1,2014-08-01T18:30:00Z,28.1530,-82.8010,10.0,4.12,347.61,5.09,'1111122,1111122,1111122' 
COMPS,ioos:station:USF.COMPS:FHP:1,2014-08-01T18:36:00Z,28.1530,-82.8010,10.0,4.26,348.02,5.48,'1111122,1111122,1111122' 
COMPS,ioos:station:USF.COMPS:FHP:1,2014-08-01T18:42:00Z,28.1530,-82.8010,10.0,4.77,348.81,5.78,'1111122,1111122,1111122' 
COMPS,ioos:station:USF.COMPS:FHP:1,2014-08-01T18:48:00Z,28.1530,-82.8010,10.0,4.55,355.57,6.07,'1111122,1111122,1111122' 
COMPS,ioos:station:USF.COMPS:FHP:1,2014-08-01T18:54:00Z,28.1530,-82.8010,10.0,4.68,356.19,5.58,'1111122,1111122,1111122' 
COMPS,ioos:station:USF.COMPS:FHP:1,2014-08-01T19:00:00Z,28.1530,-82.8010,10.0,4.74,357.75,5.68,'1111122,1111122,1111122' 
COMPS,ioos:station:USF.COMPS:FHP:1,2014-08-01T19:06:00Z,28.1530,-82.8010,10.0,4.67,356.98,5.48,'1111122,1111122,1111122' 
COMPS,ioos:station:USF.COMPS:FHP:1,2014-08-01T19:12:00Z,28.1530,-82.8010,10.0,4.7,0.32,5.68,'1111122,1111122,1111122' 
COMPS,ioos:station:USF.COMPS:FHP:1,2014-08-01T19:18:00Z,28.1530,-82.8010,10.0,4.61,353.67,5.39,'1111122,1111122,1111122' 
COMPS,ioos:station:USF.COMPS:FHP:1,2014-08-01T19:24:00Z,28.1530,-82.8010,10.0,4.65,355.61,5.68,'1111122,1111122,1111122' 
COMPS,ioos:station:USF.COMPS:FHP:1,2014-08-01T19:30:00Z,28.1530,-82.8010,10.0,4.73,353.89,5.48,'1111122,1111122,1111122' 